This is the latest recevied weather packets stored in our database for station/object S57D-6. If no packets are shown the sender has not sent any weather packets the latest 10 day(s).
| Time | Temp. | Humidity | Pressure | Rain* | Wind** | Luminosity | Snow |
|---|---|---|---|---|---|---|---|
| 1777253056 | 9.44° C | 62% | 1021.7 hPa | 0 mm | - | - | - |
| 1777252753 | 10° C | 61% | 1021.8 hPa | 0 mm | - | - | - |
| 1777252152 | 10.56° C | 58% | 1021.8 hPa | 0 mm | - | - | - |
| 1777251855 | 10.56° C | 57% | 1021.7 hPa | 0 mm | - | - | - |
| 1777251552 | 10.56° C | 56% | 1021.7 hPa | 0 mm | - | - | - |
| 1777250951 | 11.11° C | 56% | 1021.7 hPa | 0 mm | - | - | - |
| 1777250289 | 11.11° C | 56% | 1021.8 hPa | 0 mm | - | - | - |
| 1777249990 | 11.11° C | 56% | 1021.9 hPa | 0 mm | - | - | - |
| 1777249627 | 10.56° C | 56% | 1021.9 hPa | 0 mm | - | - | - |
| 1777249027 | 10.56° C | 58% | 1022 hPa | 0 mm | - | - | - |
| 1777248727 | 10.56° C | 59% | 1022 hPa | 0 mm | - | - | - |
| 1777248124 | 10.56° C | 59% | 1022.2 hPa | 0 mm | - | - | - |
| 1777247825 | 10.56° C | 58% | 1022.1 hPa | 0 mm | - | - | - |
| 1777247524 | 10.56° C | 58% | 1022 hPa | 0 mm | - | - | - |
| 1777246923 | 11.11° C | 57% | 1022.1 hPa | 0 mm | - | - | - |
| 1777246323 | 11.67° C | 56% | 1022.1 hPa | 0 mm | - | - | - |
| 1777246023 | 11.67° C | 55% | 1022.1 hPa | 0 mm | - | - | - |
| 1777245722 | 11.67° C | 55% | 1022.1 hPa | 0 mm | - | - | - |
| 1777245423 | 11.67° C | 55% | 1022.1 hPa | 0 mm | - | - | - |
| 1777245122 | 11.67° C | 55% | 1022.1 hPa | 0 mm | - | - | - |
| 1777244822 | 11.67° C | 55% | 1022 hPa | 0 mm | - | - | - |
| 1777244521 | 11.67° C | 56% | 1022 hPa | 0 mm | - | - | - |
| 1777243921 | 12.22° C | 54% | 1022 hPa | 0 mm | - | - | - |
| 1777243320 | 12.22° C | 52% | 1021.9 hPa | 0 mm | - | - | - |
| 1777243021 | 12.78° C | 52% | 1021.8 hPa | 0 mm | - | - | - |
* Rain latest hour (hover to see other rain measurements)
** Current wind speed in m/s (hover to see current wind gust speed)